Location: Newark
(34.9500°N, 139.9667°E)
Time: 10:09:21
(UTC+00:00)

Vanguard 1 - All Passes

Search period start: 10 December 2019 00:00
Search period end: 20 December 2019 00:00
Orbit: 652 x 3832 km, 34.3° (Epoch: 09 December)

Date Brightness Start Highest point End Pass type
(mag) Time Alt. Az. Time Alt. Az. Time Alt. Az.
10 Dec - 01:29:18 10° W 01:41:52 38° SW 01:49:11 10° SSE daylight
10 Dec - 16:05:28 10° SSW 16:24:04 39° SE 16:43:32 10° E visible
10 Dec - 18:26:31 10° SW 18:49:47 71° SSE 19:08:52 10° ENE visible
10 Dec - 20:53:15 10° W 21:16:42 88° S 21:31:18 10° E visible
10 Dec - 23:22:23 10° W 23:41:33 72° SSW 23:51:48 10° ESE daylight
11 Dec - 01:51:35 10° W 02:02:17 28° SW 02:09:02 10° S daylight
11 Dec - 14:12:01 10° SSE 14:21:47 15° SE 14:32:34 10° E visible
11 Dec - 16:25:19 10° SSW 16:45:03 47° SE 17:05:34 10° ENE visible
11 Dec - 18:47:44 10° WSW 19:11:23 78° SSE 19:30:12 10° E visible
11 Dec - 21:15:11 10° W 21:38:22 88° S 21:52:26 10° E visible
11 Dec - 23:44:20 10° WNW 00:02:36 63° SSW 00:12:30 10° SE daylight
12 Dec - 02:14:25 10° W 02:22:31 19° SW 02:28:15 10° S daylight
12 Dec - 14:29:03 10° S 14:42:21 23° SE 14:57:41 10° E visible
12 Dec - 16:45:35 10° SW 17:06:11 56° SSE 17:27:20 10° ENE visible
12 Dec - 19:09:11 10° WSW 19:33:04 83° SSE 19:51:30 10° E visible
12 Dec - 21:37:09 10° W 21:59:59 85° S 22:13:31 10° ESE daylight
13 Dec - 00:06:17 10° WNW 00:23:27 52° SW 00:32:58 10° SE daylight
13 Dec - 02:38:50 10° WSW 02:42:40 12° WSW 02:45:55 10° SW daylight
13 Dec - 14:47:37 10° S 15:02:56 30° SE 15:21:06 10° E visible
13 Dec - 17:06:10 10° SW 17:27:27 64° SSE 17:48:55 10° ENE visible
13 Dec - 19:30:48 10° WSW 19:54:52 87° S 20:12:48 10° E visible
13 Dec - 21:59:06 10° W 22:21:28 80° SSW 22:34:31 10° ESE daylight
14 Dec - 00:28:22 10° WNW 00:44:06 42° SW 00:53:12 10° SSE daylight
14 Dec - 15:06:58 10° SSW 15:23:37 38° SE 15:43:44 10° ENE visible
14 Dec - 17:27:03 10° SW 17:48:55 72° SSE 18:10:26 10° ENE visible
14 Dec - 19:52:33 10° W 20:16:40 88° S 20:34:04 10° E visible
14 Dec - 22:21:02 10° WNW 22:42:49 73° SSW 22:55:24 10° ESE daylight
15 Dec - 00:50:42 10° W 01:04:31 32° SW 01:13:05 10° SSE daylight
15 Dec - 13:14:31 10° SSE 13:22:17 14° ESE 13:31:14 10° E visible
15 Dec - 15:26:49 10° SSW 15:44:26 47° SE 16:05:53 10° ENE visible
15 Dec - 17:48:10 10° WSW 18:10:31 79° SSE 18:31:53 10° E visible
15 Dec - 20:14:22 10° W 20:38:29 88° S 20:55:19 10° E visible
15 Dec - 22:42:58 10° WNW 23:03:58 65° SSW 23:16:07 10° SE daylight
16 Dec - 01:13:30 10° W 01:24:47 23° SW 01:32:27 10° S daylight
16 Dec - 13:31:20 10° S 13:42:38 21° SE 13:56:45 10° E visible
16 Dec - 15:47:03 10° SW 16:05:25 56° SE 16:27:47 10° ENE visible
16 Dec - 18:09:30 10° WSW 18:32:16 84° SSE 18:53:21 10° E visible
16 Dec - 20:36:13 10° W 21:00:13 85° S 21:16:30 10° ESE visible
16 Dec - 23:04:56 10° WNW 23:24:55 55° SW 23:36:38 10° SE daylight
17 Dec - 01:37:21 10° W 01:44:56 16° WSW 01:50:47 10° SSW daylight
17 Dec - 13:49:53 10° S 14:03:03 29° SE 14:20:21 10° E visible
17 Dec - 16:07:37 10° SW 16:26:37 65° SSE 16:49:30 10° ENE visible
17 Dec - 18:30:59 10° WSW 18:54:07 87° S 19:14:47 10° E visible
17 Dec - 20:58:04 10° W 21:21:50 81° SSW 21:37:35 10° ESE visible
17 Dec - 23:27:01 10° WNW 23:45:38 45° SW 23:56:53 10° SSE daylight
18 Dec - 14:09:13 10° SSW 14:23:32 37° SE 14:43:07 10° ENE visible
18 Dec - 16:28:24 10° SW 16:48:00 73° SSE 17:11:09 10° ENE visible
18 Dec - 18:52:35 10° W 19:16:01 88° S 19:36:12 10° E visible
18 Dec - 21:19:55 10° WNW 21:43:18 74° SSW 21:58:31 10° ESE daylight
18 Dec - 23:49:21 10° WNW 00:06:08 35° SW 00:16:47 10° SSE daylight
19 Dec - 12:18:15 10° SE 12:23:14 12° ESE 12:28:54 10° ESE night (unlit)
19 Dec - 14:29:04 10° SSW 14:44:12 46° SE 15:05:24 10° ENE visible
19 Dec - 16:49:27 10° WSW 17:09:34 79° SSE 17:32:46 10° E visible
19 Dec - 19:14:15 10° W 19:37:55 88° S 19:57:34 10° E visible
19 Dec - 21:41:46 10° WNW 22:04:34 66° SSW 22:19:17 10° SE daylight
